User: anonymous   Login
Location: Christchurch
(43.5330°S, 172.6330°E)
Time: 07:51:19
(UTC+13:00)
Language:

Intelsat 806 - Orbit

View from above orbital plane
View from above orbital plane
View from above satellite
View from above satellite

Ground track
Ground track

The orbit data is extracted from the following two-line orbital elements,

1 25239U 98014A   18344.14883708 -.00000064  00000-0  00000+0 0  9992
2 25239   0.2878 111.3956 0003674 144.6556 254.2665  0.99080179 76113
Epoch (UTC): 10 December 2018 03:34:19
Eccentricity: 0.0003674
inclination: 0.2878°
perigee height: 36108 km
apogee height: 36139 km
right ascension of ascending node: 111.3956°
argument of perigee: 144.6556°
revolutions per day: 0.99080179
mean anomaly at epoch: 254.2665°
orbit number at epoch: 7611

The dashed part of the orbit path shows where the satellite is in the earth's shadow,  

DLR